This is the latest recevied weather packets stored in our database for station/object KB0BS-13. If no packets are shown the sender has not sent any weather packets the latest 10 day(s).
| Time | Temp. | Humidity | Pressure | Rain* | Wind** | Luminosity | Snow |
|---|---|---|---|---|---|---|---|
| 1777800055 | -1.11° C | 93% | 1010.1 hPa | 0 mm | - | 0 W/m² | - |
| 1777799750 | -1.11° C | 93% | 1010 hPa | 0 mm | - | 0 W/m² | - |
| 1777799448 | -1.67° C | 92% | 1010.2 hPa | 0 mm | - | 0 W/m² | - |
| 1777799143 | -1.11° C | 91% | 1010.2 hPa | 0 mm | - | 0 W/m² | - |
| 1777798839 | -1.67° C | 92% | 1010.3 hPa | 0 mm | - | 0 W/m² | - |
| 1777798535 | -1.11° C | 93% | 1010.3 hPa | 0 mm | - | 0 W/m² | - |
| 1777798233 | -1.11° C | 91% | 1010.5 hPa | 0 mm | - | 0 W/m² | - |
| 1777797929 | -1.11° C | 92% | 1010.5 hPa | 0 mm | - | 0 W/m² | - |
| 1777797627 | -1.11° C | 91% | 1010.7 hPa | 0 mm | - | 0 W/m² | - |
| 1777797325 | -1.11° C | 92% | 1010.4 hPa | 0 mm | - | 0 W/m² | - |
| 1777797021 | -1.11° C | 91% | 1010.7 hPa | 0 mm | - | 0 W/m² | - |
| 1777796718 | -1.11° C | 92% | 1010.8 hPa | 0 mm | - | 0 W/m² | - |
| 1777796415 | -1.11° C | 92% | 1011 hPa | 0 mm | - | 0 W/m² | - |
| 1777796110 | -1.11° C | 90% | 1010.9 hPa | 0 mm | - | 0 W/m² | - |
| 1777795807 | -1.67° C | 90% | 1011 hPa | 0 mm | - | 0 W/m² | - |
| 1777795503 | -1.67° C | 91% | 1011.1 hPa | 0 mm | - | 0 W/m² | - |
| 1777795200 | -2.22° C | 93% | 1011.3 hPa | 0 mm | - | 0 W/m² | - |
| 1777794896 | -2.22° C | 93% | 1011.1 hPa | 0 mm | - | 0 W/m² | - |
| 1777794594 | -2.78° C | 95% | 1011.4 hPa | 0 mm | - | 0 W/m² | - |
| 1777794288 | -2.78° C | 94% | 1011.7 hPa | 0 mm | - | 0 W/m² | - |
| 1777793984 | -2.22° C | 93% | 1011.4 hPa | 0 mm | - | 0 W/m² | - |
| 1777793681 | -2.22° C | 93% | 1011.5 hPa | 0 mm | - | 0 W/m² | - |
| 1777793379 | -2.22° C | 93% | 1011.6 hPa | 0 mm | - | 0 W/m² | - |
| 1777793077 | -1.67° C | 94% | 1011.5 hPa | 0 mm | - | 0 W/m² | - |
| 1777792774 | -1.11° C | 97% | 1011.7 hPa | 0 mm | - | 0 W/m² | - |
* Rain latest hour (hover to see other rain measurements)
** Current wind speed in m/s (hover to see current wind gust speed)